Find Starlink 3517

NORAD ID: 51735 Int'l Des: 2022-016 Owner: SPXS Country: US Constellation: starlink operational
LEOCIRCULAR

当前视图

正在加载3D地球...

About Starlink 3517

Starlink 3517 (NORAD 51735) is a starlink constellation satellite (v1.5) launched Feb 21, 2022 by SPXS of US. It operates in LEO, CIRCULAR orbit with a mass of 297.00 kg.

即将过境

Passes for default location (London). Set your location on the main map for personalized predictions.

高度历史

Loading altitude history...

两行轨道根数

1 51735U 22016X 26264.15438668 .00000545 00000-0 27283-4 0 9993
2 51735 53.1585 146.4639 0001228 84.9396 275.1746 15.34391910253283
Epoch: Sep 21, 2026 • Age: 9 hours

当前状态

高度 482.0 km
远地点 / 近地点 N/A
速度 7.62 km/s
星下点 -52.91°S, 145.52°W
发射日期 Feb 21, 2022
运行时间 4.5 years
类型 internet

技术详情

分类 Payload
质量 297.00 kg
干质量 275.00 kg
长度 0.20 m
跨度 9.00 m
形状 ? Box + pan
制造商 SPXS
平台类型 Starlink
阶段状态 In Orbit
所有者/国家 SPXS/US

Most Searched